Flag for U.S.A. Weather past 2 weeks in Carrollton, Texas, U.S.A.

Now
69 °F

More clouds than sun.


Feels Like: 69 °F
Forecast: 59 / 73 °F
Wind: 7 mph from East

Location: Dallas Love Field

Current Time: May 22, 2015 at 4:47:34 PM

Latest Report: May 22, 2015 at 3:53 PM


Visibility: 10 mi

Pressure: 30.10 "Hg

Humidity: 79%

Dew point: 62 °F

Location of CarrolltonLocation

Historic Weather in Carrollton — Graph

°F

Carrollton temperature yesterday

Maximum temperature yesterday: 68 °F (at 5:53 PM)
Minimum temperature yesterday: 56 °F (at 6:53 AM)
Average temperature yesterday: 62 °F

Past Weeks' High & Low Weather Summary

 TemperatureHumidityPressure
High90 °F (May 18, 3:53 PM)97% (May 7, 11:00 PM)30.25 "Hg (May 7, 11:00 PM)
Low56 °F (May 21, 6:53 AM)40% (May 18, 6:53 PM)29.71 "Hg (May 16, 6:53 PM)
Average73 °F77%29.97 "Hg
* Reported May 7 2:53 PM — May 22 2:53 PM, Carrollton, Weather by CustomWeather, © 2015

Note: Actual official high and low records may vary slightly from our data, if they occured in-between our weather recording intervals... More about our weather records

Advertising

Carrollton weather history for previous 24 hours

 ConditionsComfort  
Time TempWeatherWind HumidityBarometerVisibility
2:53 PM
Fri, May 22
67 °FMore clouds than sun.3 mph79%30.12 "Hg10 mi
1:53 PM64 °FThunderstorms. Mostly cloudy.5 mph81%30.12 "Hg5 mi
12:53 PM65 °FLight rain. Cloudy.14 mph70%30.12 "Hg9 mi
11:53 AM64 °FOvercast.9 mph65%30.14 "Hg10 mi
10:53 AM63 °FOvercast.13 mph70%30.15 "Hg10 mi
9:53 AM62 °FLight rain. Cloudy.17 mph67%30.15 "Hg10 mi
8:53 AM61 °FDrizzle. Mostly cloudy.13 mph87%30.16 "Hg8 mi
7:53 AM61 °FOvercast.9 mph90%30.15 "Hg7 mi
6:53 AM62 °FMostly cloudy.12 mph83%30.14 "Hg10 mi
5:53 AM61 °FLow clouds.12 mph90%30.13 "Hg10 mi
4:53 AM62 °FMostly cloudy.9 mph86%30.12 "Hg10 mi
3:53 AM62 °FLow clouds.14 mph86%30.12 "Hg10 mi
2:53 AM63 °FLow clouds.9 mph84%30.12 "Hg10 mi
1:53 AM63 °FMostly cloudy.12 mph81%30.12 "Hg10 mi
12:53 AM63 °FOvercast.10 mph84%30.11 "Hg10 mi
11:53 PM
Thu, May 21
64 °FOvercast.8 mph78%30.14 "Hg10 mi
10:53 PM64 °FOvercast.8 mph78%30.14 "Hg10 mi
9:53 PM65 °FOvercast.5 mph76%30.15 "Hg10 mi
8:53 PM65 °FMostly cloudy.5 mph73%30.14 "Hg10 mi
7:53 PM66 °FOvercast.6 mph70%30.13 "Hg10 mi
6:53 PM67 °FLight rain. Overcast.7 mph66%30.12 "Hg10 mi
5:53 PM68 °FLight rain. Overcast.9 mph65%30.13 "Hg10 mi
4:53 PM66 °FOvercast.7 mph68%30.15 "Hg10 mi
Weather by CustomWeather, © 2015

See weather overviewHow to use our weather pages